Back to catalog

FENGYUN 1C DEB

AlivePO
NORAD 30603·DEBRIS·🇨🇳 China

Launched May 10, 1999 from Taiyuan Satellite Launch Center

Loading…

Next Passes (next 24 hours)

TLE

FreshSource: Space-Track

Epoch: Sep 14, 2026, 11:00 UTC

1 30603U 99025AMJ 26257.45855328  .00000845  00000-0  68661-3 0  9996
2 30603  98.4023 256.7229 0181758 169.2791 348.9115 13.84923840986914

Track FENGYUN 1C DEB in real time with AllMySat

Download on the App Store